Orbital Elements at Epoch 2459000.5 (2020-May-31.0) TDB
Reference: JPL 12 (heliocentric ecliptic J2000)
Element | Value | Uncertainty (1-sigma) | Units |
e | .08965042080960008 | 3.4426e-08 | |
a | 2.2487375327852 | 9.933e-09 | au |
q | 2.047137266680665 | 7.4316e-08 | au |
i | 2.938849168903008 | 4.3216e-06 | deg |
node | 230.2400597994316 | 0.00010131 | deg |
peri | 35.24340091103889 | 0.00010788 | deg |
M | 31.37699221860414 | 3.5721e-05 | deg |
tp | 2458893.146702477972 (2020-Feb-13.64670248) | 0.00012228 | TDB |
period | 1231.704646470713 3.37 | 8.1609e-06 2.234e-08 | d yr |
n | .2922778614431086 | 1.9365e-09 | deg/d |
Q | 2.450337798889735 | 1.0823e-08 | au |
|
| | Orbit Determination Parameters
Additional Information
|